www.pogodaiklimat.ru

Погода и климат >> Архив погоды >> Россия >> Хабаровский край >> Троицкое


ПОГОДА в Троицком

  • Прогноз погоды в Троицком
  • Монитор погоды в Троицком

АРХИВ ПОГОДЫ в Троицком

Время (UTC), дата Ветер
(напр.,м/с)
 
Видим.   Явления Облачность Т
(С)
Тd
(С)
f
(%)
Тe
(С)
Тes
(С)
Комфортность P
(гПа)
Po
(гПа)
Тmin
(С)
Tmax
(С)
R
(мм)
R24
(мм)
S
(см)
06 19.08 СВ 2 50 км 8/8 600 м
[Cb cap]
+1.9 +16.2 100 -2 0 1025.5 1008.5
09 19.08 С 1 20 км 9/9 600 м
[Cb cap]
+18.6 +16.3 86 +21 +21 комфорт 1011.5 1007.6 +20.5 4
12 19.08 СВ 1 20 км 10/10 600 м
[Cb cap]
+17.5 +16.1 91 +19 +19 1012.0 1008.1
15 19.08 СВ 1 20 км 10/10 600 м
[Cb cap]
+17.7 +16.4 92 +19 +19 1012.0 1008.1
18 19.08 штиль 0 20 км 10/10 600 м
[Cb cap]
+17.3 +16.2 93 +17 +17 1011.8 1007.9
21 19.08 СВ 1 500 м туман 10/10 600 м
[St]
+17.0 +16.0 94 +18 +18 1011.9 1008.0 +16.9
00 20.08 СВ 1 1000 м дождь {туман} 10/10 600 м
[St]
+17.0 +16.0 94 +18 +18 1011.9 1008.1
03 20.08 СВ 1 1000 м дождь 10/10 600 м
[St]
+18.6 +16.6 88 +21 +21 комфорт 1011.7 1007.8
06 20.08 С 1 20 км {дождь} 10/6 600 м
[Sc Ac As]
+21.2 +17.1 77 +25 +26 комфорт 1011.0 1007.2
09 20.08 СВ 1 20 км 8/4 600 м
[Sc Ac As]
+20.0 +16.5 80 +24 +24 комфорт 1010.8 1007.0 +21.4
12 20.08 СВ 1 20 км 6/3 600 м
[Sc Ac As Ci fib]
+18.7 +16.5 87 +21 +21 комфорт 1012.4 1008.1
15 20.08 СВ 2 н/о +17.5 +15.3 87 +18 +18 1011.8 1007.9
18 20.08 СВ 3 20 км 5/3 600 м
[Sc Ac und Ci fib]
+16.9 +15.2 90 +17 +17 1011.4 1007.5
21 20.08 СВ 3 20 км 10/0
[Ac As]
+16.9 +15.3 90 +17 +17 1011.9 1008.0 +16.8
00 21.08 СВ 2 50 км 10/6 600 м
[Cb cap Ac As]
+18.5 +15.7 84 +20 +21 1012.1 1008.2
03 21.08 С 1 50 км 10/10 600 м
[Cb cap]
+19.5 +16.3 82 +23 +23 комфорт 1011.5 1007.6
06 21.08 СВ 1 20 км слаб. ливневой дождь 10/10 600 м
[Cb cap]
+19.2 +16.4 84 +22 +22 комфорт 1011.7 1007.3
09 21.08 С 2 10 км в посл. час ливневой дождь 10/10 600 м
[Cb cap]
+18.8 +17.2 90 +21 +21 комфорт 1011.2 1006.9 +20.1 22
12 21.08 СВ 1 20 км {ливн. осадки} 10/10 600 м
[Cb cap]
+18.5 +17.4 93 +20 +20 1010.4 1006.5
15 21.08 В 1 10 км {ливн. осадки} 10/10 600 м
[Cb cap]
+17.1 +15.4 90 +18 +18 1010.6 1006.7
18 21.08 ЮВ 1 10 км {ливн. осадки} 10/10 600 м
[Cb cap]
+16.5 +14.2 86 +17 +17 1010.6 1006.7
21 21.08 В 1 50 км 10/10 600 м
[Cb cap]
+16.1 +13.9 87 +17 +17 1011.0 1007.1 +15.7 0.4
00 22.08 СВ 2 50 км 10/10 600 м
[Cb cap]
+17.7 +14.4 81 +18 +18 1011.6 1007.7
03 22.08 СВ 1 10 км слаб. ливневой дождь 10/10 600 м
[Cb cap]
+17.5 +15.3 87 +19 +19 1011.6 1007.7
06 22.08 В 2 20 км {ливн. осадки} 10/10 600 м
[Cb cap]
+17.7 +15.3 86 +18 +18 1011.3 1007.4
09 22.08 СВ 2 50 км {ливн. осадки} 10/8 600 м
[Cb cap]
+18.2 +15.6 85 +19 +19 1011.2 1007.3 +19.0 4
12 22.08 В 3 50 км {ливн. осадки} 10/8 600 м
[Cb cap]
+17.6 +14.0 79 +18 +18 1011.5 1007.6
15 22.08 В 3 50 км 6/3 600 м
[Sc Ac As]
+16.8 +13.5 81 +17 +17 1011.4 1007.5
18 22.08 СВ 4 50 км 8/3 600 м
[Sc Ac As]
+16.8 +13.0 78 +16 +16 1011.5 1007.6
21 22.08 СВ 3 50 км 8/3 600 м
[Sc Ac As]
+16.4 +12.7 79 +16 +16 1011.2 1007.3 +16.3
00 23.08 СВ 3 50 км 8/6 600 м
[Cb cap Ci fib]
+18.2 +11.2 64 +19 +21 1011.7 1007.8 -1.9
03 23.08 С 1 50 км 8/5 600 м
[Cb cap Ci fib]
+20.2 +14.0 68 +24 +30 комфорт 1011.2 1007.3
06 23.08 СВ 1 50 км 8/6 600 м
[Cb cap Ci fib]
+20.1 +14.8 72 +24 +27 комфорт 1010.6 1006.7
09 23.08 СВ 1 50 км 10/8 600 м
[Cb cap Ci fib]
+18.2 +14.3 78 +20 +20 1010.5 1006.6 +20.1
12 23.08 СВ 3 50 км 10/8 600 м
[Cb cap Ci fib]
+16.5 +13.7 84 +16 +16 1011.1 1007.2
15 23.08 СВ 8 50 км 10/8 600 м
[Cb cap Ci fib]
+16.3 +12.1 76 +15 +15 1011.3 1007.4
18 23.08 В 3 50 км 10/8 600 м
[Cb cap Ci fib]
+15.8 +11.9 78 +15 +15 1011.2 1007.3
21 23.08 СВ 3 50 км 10/8 600 м
[Cb cap Ci fib]
+15.7 +12.2 80 +15 +15 1011.1 1007.2
00 24.08 СВ 2 50 км 10/8 600 м
[Cb cap Ci fib]
+16.8 +11.2 70 +17 +18 1011.1 1007.2 +15.7
03 24.08 СЗ 1 50 км 6/4 600 м
[Cu hum Ci fib]
+20.6 +12.7 61 +24 +33 комфорт 1010.7 1006.8
06 24.08 С 1 50 км 10/8 600 м
[Cb cap Ci sp]
+18.7 +12.3 66 +21 +22 комфорт 1010.1 1006.2
09 24.08 СВ 3 50 км 10/10 600 м
[Cb cap]
+17.3 +11.7 70 +17 +17 1010.4 1006.5 +21.6
12 24.08 СВ 3 50 км 10/10 600 м
[Cb cap]
+16.3 +12.9 80 +16 +16 1010.9 1006.9
15 24.08 СВ 3 50 км 10/10 600 м
[Cb cap]
+15.8 +12.9 83 +15 +15 1010.6 1006.7
18 24.08 В 2 50 км 10/10 600 м
[Cb cap]
+15.2 +12.1 82 +15 +15 1010.7 1006.8
21 24.08 В 2 50 км 8/4 600 м
[Sc Ci fib]
+15.2 +12.2 82 +15 +15 1011.6 1007.7 +14.2
00 25.08 СВ 2 50 км 8/6 600 м
[Sc Ci fib]
+17.2 +11.9 71 +18 +20 1012.3 1008.4 +13.7
03 25.08 С 1 50 км 8/4 600 м
[Cu hum Cs]
+18.6 +13.1 70 +20 +28 1011.4 1007.5
06 25.08 В 1 50 км 6/3 600 м
[Cu hum Ci fib]
+19.4 +12.9 66 +22 +27 комфорт 1010.5 1006.6
09 25.08 штиль 0 50 км 3/0
[Ci fib]
+18.5 +13.0 70 +19 +19 1010.3 1006.4 +20.9
12 25.08 Ю 2 50 км ясно +13.2 +11.7 91 +12 +12 1010.9 1007.0
15 25.08 Ю 3 50 км 3/0
[Ci fib]
+13.4 +11.7 89 +12 +12 1010.5 1006.6
18 25.08 Ю 4 50 км ясно +12.7 +11.5 92 +11 +11 1010.3 1006.3
21 25.08 Ю 4 50 км 8/6 600 м
[Sc Ac cast]
+13.1 +11.9 92 +11 +11 1010.6 1006.7 +12.0
00 26.08 Ю 5 50 км 8/6 600 м
[Cb cap Ci fib]
+17.2 +14.1 82 +17 +18 1011.0 1007.1
03 26.08 ЮЗ 5 50 км 6/3 600 м
[Cb cap Ci fib]
+17.3 +14.0 81 +17 +21 1011.1

 

Местоположение метеостанции Троицкое (Хабаровский край, Россия): широта 49.45 долгота 136.56 высота над уровнем моря 37 м.

В архиве по умолчанию представлена погода в Троицком за последнюю неделю. Архивные данные за месяц целиком и за предыдущие месяцы, начиная с января 2011 года, Вы можете получить, выбрав интересующий диапазон дат из раскрывающегося списка и нажав кнопку "Ввод!".


*Определитесь, кто Вы:
робот инопланетянин человек

Внимание! Время в таблицах - всемирное. Для получения местного времени необходимо прибавить поправку, которая равна 10 ч.

Смотрите также архив погоды в соседних городах и на ближайших метеорологических станциях:

Погода в Елабуге (Хабаровский край, Россия) (89 км)
Погода в Тивяку (Хабаровский край, Россия) (100 км)
Погода в Амурске (Хабаровский край, Россия) (101 км)
Погода в Литовко (Хабаровский край, Россия) (109 км)
Погода в Солекуль (Хабаровский край, Россия) (109 км)
Погода в Комсомольске-на-Амуре (Хабаровский край, Россия) (124 км)
Погода в Князе-Волконском (Хабаровский край, Россия) (134 км)
Погода в Хабаровске 21 км (Хабаровский край, Россия) (140 км)
Погода в Хабаровске (Хабаровский край, Россия) (149 км)
Погода в Хабаровске Агромет (Хабаровский край, Россия) (149 км)

Пояснения к столбцам:

Ветер - указаны скорость ветра в м/с - средняя за 10 мин, порывы в срок и между сроками (в фигурных скобках) и направление, откуда дует ветер: С - северный, СВ - северо-восточный, В - восточный, ЮВ - юго-восточный, Ю - южный, ЮЗ - юго-западный, З - западный, СЗ - северо-западный.
Видимость - горизонтальная дальность видимости в метрах или километрах. При видимости от 1 до 10 км при отсутствии осадков обычно наблюдается дымка, при ухудшении видимости до 1 км и менее - туман. В сухую погоду видимость может ухудшаться дымом, пылью или мглою.
Явления - указаны атмосферные явления, наблюдавшиеся в срок или в последний час перед сроком; фигурными скобками обозначены явления, наблюдавшиеся между сроками (за 1-3 часа до срока); квадратными скобками обозначены град или гололедные отложения с указанием их диаметра в мм.
Облачность - указаны через наклонную черту общая и нижняя облачность в баллах и высота нижней границы облаков в метрах; квадратными скобками обозначены формы облаков: Ci - перистые, Cs - перисто-слоистые, Cc - перисто-кучевые, Ac - высококучевые, As - высокослоистые, Sc - слоисто-кучевые, Ns - слоисто-дождевые, Cu - кучевые, Cb - кучево-дождевые. Подробнее классификацию облаков см. в Атласе облаков (PDF).
T - Температура воздуха - температура, измеренная на высоте 2 м над землей.
Td - Температура точки росы - температура, при понижении до которой содержащийся в воздухе водяной пар достигнет насыщения.
f - Относительная влажность воздуха - влажноcть воздуха, измеренная на высоте 2 м над землей.
Te - Эффективная температура - температура, которую ощущает одетый по сезону человек в тени. Характеристика душности погоды. При расчете учитывается влияние влажности воздуха и скорости ветра на теплоощущения человека.
Tes - Эффективная температура на солнце - температура, которую ощущает человек, с поправкой на солнечный нагрев. Характеристика знойности погоды. Зависит от высоты солнца над горизонтом, облачности и скорости ветра. Ночью, в пасмурную погоду, а также при ветре 12 м/с и более поправка равна нулю.
P - Атмосферное давление - приведенное к уровню моря атмосферное давление.
Po - Атмосферное давление - измеренное на уровне метеостанции атмосферное давление.
Tmin - Минимальная температура - минимум температуры воздуха на высоте 2 м над землей.
Tmax - Максимальная температура - максимум температуры воздуха на высоте 2 м над землей.
R - Количество осадков - Количество выпавших осадков за период времени, мм. При наведении курсора мыши на число - период времени, за который выпало указанное количество осадков.
R24 - Количество осадков - Количество выпавших осадков за 24 часа, мм.
S - Снежный покров - Высота снежного покрова, см. При наведении курсора мыши на число - состояние снежного покрова и степень покрытия местности в баллах.